Location: Newark
(46.4551°N, 12.7452°E)
Time: 10:18:25
(UTC+00:00)

ISS - Visible Passes

Search period start: 09 December 2019 00:00
Search period end: 19 December 2019 00:00
Orbit: 411 x 421 km, 51.6° (Epoch: 09 December)

Date Brightness Start Highest point End Pass type
(mag) Time Alt. Az. Time Alt. Az. Time Alt. Az.
09 Dec -3.3 16:38:31 10° WNW 16:41:50 61° SSW 16:45:10 10° SE visible
09 Dec -0.4 18:17:43 10° SW 18:18:00 10° SW 18:18:16 10° SW visible
10 Dec -0.8 17:27:33 10° W 17:29:46 17° SW 17:31:58 10° S visible
11 Dec -1.5 16:38:36 10° W 16:41:28 26° SW 16:44:18 10° SSE visible
13 Dec -0.2 16:39:55 10° WSW 16:40:50 11° SW 16:41:45 10° SSW visible
